Location: Unspecified
(0.0000°N, 0.0000°E)
Time: 23:04:24
(UTC+02:00)

NATO 3D Rocket - Visible Passes

Search period start: 28 June 2017 00:00
Search period end: 08 July 2017 00:00
Orbit: 670 x 2296 km, 21.5° (Epoch: 27 June)

Date Brightness Start Highest point End Pass type
(mag) Time Alt. Az. Time Alt. Az. Time Alt. Az.
28 Jun 7.2 00:15:37 10° WSW 00:18:20 18° WSW 00:18:20 18° WSW visible
28 Jun 6.5 04:41:47 11° NNE 04:41:47 11° NNE 04:42:15 10° NNE visible
28 Jun 6.2 21:10:19 10° SW 21:22:57 38° SSE 21:29:34 26° ESE visible
28 Jun 6.2 23:16:26 10° WSW 23:25:08 42° SW 23:25:08 42° SW visible
29 Jun 6.5 20:11:51 10° SW 20:23:34 34° SSE 20:35:32 10° ESE visible
29 Jun 5.7 22:17:30 10° SW 22:31:18 55° SSE 22:32:02 55° SSE visible
30 Jun 7.1 00:24:12 10° WSW 00:27:37 21° WSW 00:27:37 21° WSW visible
30 Jun 6.5 04:49:42 12° N 04:49:42 12° N 04:50:54 10° NNE visible
30 Jun 6.0 21:18:52 10° SW 21:32:07 48° SSE 21:39:01 29° ESE visible
30 Jun 6.0 23:24:54 10° WSW 23:34:36 51° WSW 23:34:36 51° WSW visible
01 Jul 6.3 20:20:37 10° SW 20:32:49 41° SSE 20:45:31 10° E visible
01 Jul 5.5 22:25:57 10° WSW 22:40:10 71° SSE 22:41:41 67° ESE visible
02 Jul 7.0 00:33:04 10° WSW 00:37:17 23° W 00:37:17 23° W visible
02 Jul 6.5 04:57:35 12° N 04:57:35 12° N 04:59:56 10° N visible
02 Jul 5.8 21:27:24 10° SW 21:41:01 60° SSE 21:48:51 30° E visible
02 Jul 5.9 23:33:36 10° WSW 23:44:28 58° W 23:44:28 58° W visible
03 Jul 6.9 04:03:47 11° NNE 04:03:47 11° NNE 04:04:09 10° NNE visible
03 Jul 6.0 20:29:15 10° SW 20:41:49 51° SSE 20:55:12 10° E visible
03 Jul 5.6 22:34:34 10° WSW 22:48:53 89° SSE 22:51:45 65° ENE visible
04 Jul 7.0 00:42:17 10° W 00:47:22 25° W 00:47:22 25° W visible
04 Jul 6.6 05:05:31 12° NNW 05:07:05 12° N 05:09:51 10° NNE visible
04 Jul 6.2 07:09:49 10° NNW 07:12:25 13° N 07:14:47 10° NE visible
04 Jul 5.7 21:36:00 10° WSW 21:49:45 76° SSE 21:59:06 26° ENE visible
04 Jul 6.0 23:42:37 10° W 23:54:43 57° NW 23:54:43 57° NW visible
05 Jul 6.7 04:11:46 14° NNE 04:11:46 14° NNE 04:13:38 10° NNE visible
05 Jul 6.4 06:11:45 10° NNW 06:14:48 13° N 06:17:30 10° NNE visible
05 Jul 5.8 20:37:53 10° WSW 20:50:37 64° SSE 21:04:34 10° ENE visible
05 Jul 5.8 22:43:27 10° WSW 22:57:32 73° NNW 23:02:08 49° NE visible
06 Jul 7.0 00:51:52 10° W 00:57:45 26° WNW 00:57:45 26° WNW visible
06 Jul 6.5 05:13:35 11° NNW 05:16:58 15° N 05:20:34 10° NNE visible
06 Jul 5.9 07:17:36 10° NW 07:22:06 20° NNE 07:25:52 10° ENE visible
06 Jul 5.8 21:44:47 10° WSW 21:58:25 86° NNW 22:09:34 19° ENE visible
06 Jul 6.2 23:51:59 10° W 00:05:12 48° NNW 00:05:12 48° NNW visible
07 Jul 6.7 04:19:57 17° N 04:19:57 17° N 04:23:42 10° NNE visible
07 Jul 6.1 06:19:39 10° NW 06:24:35 19° N 06:28:37 10° NE visible
07 Jul 5.8 20:46:39 10° WSW 20:59:18 81° SSE 21:13:34 10° ENE visible
07 Jul 6.1 22:52:38 10° W 23:06:15 57° NNW 23:12:37 35° NE visible
